[[{"header":{"parameterUnit":"m.s-1","parameterCategory":2,"la1":30.2991,"la2":30.254,"lo1":-89.0895,"lo2":-89.0444,"dy":0.0017,"dx":0.0017,"nx":28,"ny":28,"refTime":"2025-11-17T03:00:00:Z","depth":"0","parameterNumber":2,"parameterNumberName":"U-component_of_CURRENTS"},"data":[0,0,0,0,0,0,0,0,0,0,0,0,0,0,0,0,0,0,0,0,0,0,0,0,0,0,0,0,0,0,0,0,0,0,0,0,0,0,0,0,0,0,0,0,0,0,0,0,0,0,0,0,0,0,0,0,0,0,-0.3223,-0.3222,0,-0.3111,-0.311,-0.3108,-0.3012,-0.3011,-0.301,-0.3009,-0.2776,-0.2771,-0.2766,0,0,0,0,0,0,0,0,0,0,0,0,0,-0.325,-0.3251,-0.3223,-0.3221,-0.322,-0.3111,-0.3109,-0.3108,-0.3012,-0.3011,-0.301,-0.3009,-0.2778,-0.2772,-0.2765,0,0,0,0,0,0,0,0,0,0,0,0,0,-0.3196,-0.3251,-0.3223,-0.3161,-0.3155,-0.3112,-0.3109,-0.3107,-0.3012,-0.3011,-0.3009,-0.3008,-0.278,-0.2772,-0.2764,-0.274,0,0,-0.274,-0.2736,0,0,0,0,0,0,0,0,-0.32,-0.3195,-0.3171,-0.3165,-0.3158,-0.3076,-0.3034,-0.2979,-0.3012,-0.3064,-0.3009,-0.3008,-0.2868,-0.2853,-0.2832,-0.2729,-0.2719,-0.2739,-0.2734,-0.273,-0.2728,0,0,0,0,0,0,0,-0.3203,-0.3199,-0.3176,-0.317,-0.3162,-0.3104,-0.3096,-0.3023,-0.297,-0.3059,-0.3052,-0.3044,-0.2863,-0.2841,-0.2826,-0.2715,-0.2739,-0.2732,-0.2727,-0.2724,-0.2572,-0.2573,0,0,0,0,0,0,-0.323,-0.3203,-0.3179,-0.3173,-0.3179,-0.3105,-0.3096,-0.3102,-0.2973,-0.2954,-0.3046,-0.304,-0.2855,-0.2836,-0.2817,-0.2746,-0.2731,-0.2723,-0.2718,-0.2571,-0.2572,-0.2573,0,0,0,0,0,0,-0.3231,-0.3229,-0.3184,-0.3186,-0.3177,-0.3107,-0.3114,-0.31,-0.3082,-0.2965,-0.2943,-0.3043,-0.2853,-0.2829,-0.2758,-0.2738,-0.2719,-0.2712,-0.257,-0.2572,-0.2573,-0.2626,0,0,0,0,0,0,-0.3232,-0.3231,-0.3238,-0.3189,-0.3178,-0.3168,-0.3115,-0.3099,-0.308,-0.3072,-0.2955,-0.2932,-0.2851,-0.2771,-0.2751,-0.2726,-0.2706,-0.2569,-0.2571,-0.2572,-0.2623,-0.2629,-0.2634,0,0,0,0,0,-0.3234,-0.3244,-0.324,-0.3236,-0.3193,-0.3169,-0.3158,-0.3101,-0.3082,-0.308,-0.3001,-0.2936,-0.2767,-0.2766,-0.2741,-0.2713,-0.2569,-0.257,-0.2572,-0.2621,-0.2628,-0.2633,0,0,0,0,0,0,-0.3229,-0.3235,-0.3228,-0.3232,-0.3212,-0.3154,-0.314,-0.3118,-0.3058,-0.3044,-0.294,-0.2912,-0.2844,-0.2787,-0.2789,-0.2681,-0.2659,-0.2656,-0.2705,-0.271,-0.2715,-0.2695,-0.2699,0,0,0,0,0,-0.3245,-0.3271,-0.325,-0.3252,-0.3248,-0.3204,-0.3186,-0.3159,-0.3103,-0.3076,-0.2994,-0.2911,-0.2835,-0.2782,-0.2712,-0.2648,-0.2587,-0.2621,-0.2626,-0.2631,-0.2602,-0.251,-0.2503,-0.258,-0.2579,-0.2579,0,0,-0.3241,-0.3248,-0.3258,-0.3256,-0.3231,-0.3211,-0.3189,-0.3174,-0.314,-0.3058,-0.2983,-0.2929,-0.2829,-0.2755,-0.2719,-0.2699,-0.2587,-0.2633,-0.2637,-0.2605,-0.2511,-0.2503,-0.2496,-0.2581,-0.2581,-0.258,0,0,-0.3236,-0.3258,-0.3271,-0.3265,-0.3252,-0.3227,-0.3234,-0.3193,-0.3159,-0.3103,-0.3034,-0.297,-0.2857,-0.2772,-0.2716,-0.2713,-0.2629,-0.2707,-0.2691,-0.2604,-0.2596,-0.2588,-0.2535,-0.2522,-0.2696,-0.2696,-0.2696,0,-0.3223,-0.3235,-0.3264,-0.3261,-0.3241,-0.324,-0.3218,-0.3192,-0.3128,-0.3086,-0.3084,-0.2921,-0.2851,-0.2735,-0.2735,-0.2717,-0.267,-0.2672,-0.2607,-0.2598,-0.2588,-0.2536,-0.252,-0.2699,-0.2698,-0.2698,-0.2698,0,-0.3218,-0.3222,-0.3224,-0.3227,-0.3218,-0.3205,-0.3183,-0.3161,-0.3133,-0.3087,-0.2999,-0.292,-0.2811,-0.2798,-0.2754,-0.2658,-0.2651,-0.2635,-0.2585,-0.2583,-0.253,-0.2512,-0.2703,-0.2702,-0.2701,-0.27,0,0,-0.3171,-0.3215,-0.3207,-0.3195,-0.3198,-0.3178,-0.3149,-0.3097,-0.305,-0.3008,-0.2925,-0.2829,-0.2802,-0.2739,-0.2694,-0.2622,-0.254,-0.2602,-0.2597,-0.254,-0.2366,-0.2309,-0.2284,-0.2512,-0.2508,-0.2505,-0.2368,0,-0.3135,-0.3134,-0.3163,-0.3123,-0.3105,-0.3109,-0.3071,-0.3033,-0.2997,-0.2927,-0.2862,-0.2776,-0.2776,-0.2728,-0.2659,-0.2565,-0.2491,-0.2579,-0.2384,-0.2378,-0.2316,-0.226,-0.2173,-0.2037,-0.2351,-0.2348,-0.2346,0,-0.3083,-0.3093,-0.3069,-0.3056,-0.3047,-0.3027,-0.2964,-0.2939,-0.2872,-0.2841,-0.2773,-0.2729,-0.2623,-0.2634,-0.2459,-0.2517,-0.2437,-0.2376,-0.2369,-0.227,-0.2285,-0.2082,-0.1993,-0.1982,-0.2318,-0.232,-0.2322,0,-0.2997,-0.3003,-0.2982,-0.2979,-0.2978,-0.2951,-0.2944,-0.2896,-0.2843,-0.2789,-0.273,-0.2642,-0.2563,-0.2466,-0.2361,-0.2396,-0.2174,-0.2202,-0.2074,-0.2072,-0.1931,-0.192,-0.1784,-0.2053,-0.2053,-0.2054,-0.2054,0,-0.2921,-0.2885,-0.2942,-0.2923,-0.2851,-0.2898,-0.2816,-0.2799,-0.2761,-0.2682,-0.2679,-0.2581,-0.251,-0.239,-0.2322,-0.2136,-0.2134,-0.2037,-0.2007,-0.1954,-0.1948,-0.1878,-0.1915,-0.2049,-0.205,-0.2051,-0.2052,0,-0.2779,-0.2842,-0.279,-0.281,-0.2802,-0.2745,-0.2719,-0.2673,-0.267,-0.257,-0.2546,-0.2484,-0.2351,-0.2275,-0.2109,-0.205,-0.1863,-0.1845,-0.1811,-0.1778,-0.1663,-0.1706,-0.152,-0.1477,-0.1675,-0.1673,-0.167,0,-0.2696,-0.2664,-0.2668,-0.2633,-0.2629,-0.2583,-0.2552,-0.2588,-0.2559,-0.2492,-0.2433,-0.231,-0.2178,-0.1948,-0.1845,-0.1697,-0.1724,-0.1543,-0.1578,-0.1603,-0.163,-0.1684,-0.1667,-0.1435,-0.1431,-0.1427,-0.1425,0,-0.247,-0.2483,-0.2451,-0.2414,-0.2384,-0.235,-0.2341,-0.2303,-0.2353,-0.2263,-0.2155,-0.205,-0.1892,-0.1696,-0.1551,-0.1469,-0.1516,-0.1471,-0.1474,-0.1391,-0.1456,-0.142,-0.1627,-0.1396,-0.1399,-0.1401,-0.1402,-0.1404,-0.2249,-0.2184,-0.2171,-0.2123,-0.2118,-0.2106,-0.1987,-0.2012,-0.1914,-0.1724,-0.1851,-0.1581,-0.1589,-0.136,-0.129,-0.1181,-0.1266,-0.1146,-0.1188,-0.1234,-0.1202,-0.1364,-0.112,-0.1121,-0.1123,-0.1124,-0.1124,0,-0.1943,-0.1929,-0.1878,-0.183,-0.1777,-0.1852,-0.1809,-0.1665,-0.1472,-0.1355,-0.1208,-0.1093,-0.1004,-0.1004,-0.0982,-0.0919,-0.0927,-0.0916,-0.0971,-0.096,-0.1052,-0.1052,-0.0809,-0.0809,-0.0809,-0.0809,-0.0809,-0.0809,-0.1769,-0.1649,-0.1674,-0.1506,-0.1479,-0.1301,-0.1223,-0.1059,-0.0911,-0.0582,-0.0381,-0.0341,-0.0586,-0.0841,-0.0854,-0.0818,-0.0831,-0.0795,-0.0844,-0.0933,-0.0959,-0.0985,-0.0991,-0.0739,-0.0739,-0.0708,-0.0708,-0.0708]},{"header":{"parameterUnit":"m.s-1","parameterCategory":2,"la1":30.2991,"la2":30.254,"lo1":-89.0895,"lo2":-89.0444,"dy":0.0017,"dx":0.0017,"nx":28,"ny":28,"refTime":"2025-11-17T03:00:00:Z","depth":"0","parameterNumber":3,"parameterNumberName":"V-component_of_CURRENTS"},"data":[0,0,0,0,0,0,0,0,0,0,0,0,0,0,0,0,0,0,0,0,0,0,0,0,0,0,0,0,0,0,0,0,0,0,0,0,0,0,0,0,0,0,0,0,0,0,0,0,0,0,0,0,0,0,0,0,0,0,0.0605,0.0606,0,0.0781,0.0783,0.0785,0.0894,0.0895,0.0895,0.0895,0.128,0.129,0.1299,0,0,0,0,0,0,0,0,0,0,0,0,0,0.0435,0.0437,0.0605,0.0607,0.0609,0.0781,0.0783,0.0786,0.0894,0.0895,0.0895,0.0895,0.1277,0.1288,0.13,0,0,0,0,0,0,0,0,0,0,0,0,0,0.0551,0.0438,0.0604,0.0682,0.069,0.078,0.0783,0.0787,0.0894,0.0895,0.0895,0.0896,0.1273,0.1287,0.1302,0.1383,0,0,0.1347,0.1354,0,0,0,0,0,0,0,0,0.0544,0.0558,0.0668,0.0676,0.0686,0.0814,0.0864,0.0996,0.0894,0.0819,0.0895,0.0896,0.1142,0.1167,0.1199,0.1401,0.1417,0.1349,0.1358,0.1364,0.1368,0,0,0,0,0,0,0,0.0536,0.0551,0.0677,0.067,0.0681,0.0732,0.0749,0.0889,0.0981,0.0826,0.0833,0.0849,0.1148,0.1185,0.121,0.1423,0.1348,0.1361,0.1371,0.1376,0.1643,0.1641,0,0,0,0,0,0,0.0506,0.0543,0.0671,0.0682,0.0613,0.0734,0.0754,0.0774,0.0975,0.1004,0.0849,0.0854,0.1159,0.1192,0.1224,0.1286,0.1364,0.1378,0.1386,0.1645,0.1643,0.1641,0,0,0,0,0,0,0.0502,0.0516,0.0664,0.0614,0.0637,0.0736,0.0759,0.0777,0.0808,0.099,0.1023,0.0859,0.1161,0.1203,0.133,0.1304,0.1384,0.1398,0.1647,0.1644,0.1642,0.1442,0,0,0,0,0,0,0.0496,0.0513,0.0515,0.0612,0.0638,0.0694,0.0759,0.078,0.0816,0.0824,0.101,0.1046,0.1164,0.1306,0.1344,0.1326,0.141,0.1649,0.1646,0.1642,0.1451,0.1433,0.1417,0,0,0,0,0,0.0489,0.0475,0.0514,0.053,0.0638,0.0692,0.0709,0.0784,0.0815,0.0816,0.0941,0.104,0.131,0.1318,0.1363,0.1348,0.1651,0.1647,0.1643,0.1458,0.1436,0.1417,0,0,0,0,0,0,0.0377,0.0487,0.0532,0.0546,0.0607,0.0709,0.0709,0.0769,0.0865,0.0878,0.1047,0.1091,0.1177,0.1292,0.1295,0.1408,0.1486,0.1491,0.133,0.1311,0.1295,0.1284,0.1422,0,0,0,0,0,0.0359,0.039,0.0489,0.0494,0.0516,0.0612,0.0642,0.0698,0.0795,0.0835,0.096,0.1089,0.1196,0.1275,0.1383,0.1478,0.1547,0.1485,0.1468,0.1454,0.1471,0.1559,0.1552,0.1627,0.1627,0.1627,0,0,0.0311,0.0377,0.0391,0.0475,0.0523,0.0555,0.063,0.0661,0.0697,0.0869,0.0941,0.1038,0.1202,0.128,0.1329,0.138,0.1448,0.1448,0.1435,0.1462,0.1554,0.1548,0.1541,0.1624,0.1625,0.1625,0,0,0.0223,0.0288,0.0284,0.034,0.0416,0.0489,0.049,0.0586,0.0631,0.072,0.0827,0.0914,0.1092,0.1192,0.1271,0.1237,0.1342,0.1249,0.1187,0.1269,0.1264,0.1261,0.1246,0.1244,0.1258,0.1257,0.1257,0,0.0151,0.0188,0.0281,0.0297,0.0338,0.045,0.0454,0.052,0.0645,0.0685,0.0716,0.0933,0.1054,0.1171,0.1138,0.1202,0.1233,0.1248,0.1247,0.1247,0.1247,0.1234,0.1234,0.1247,0.1248,0.1249,0.125,0,0.0085,0.0114,0.0104,0.0186,0.0236,0.0252,0.0365,0.0409,0.0479,0.0558,0.0655,0.0806,0.0939,0.0964,0.1052,0.1105,0.1111,0.1198,0.1295,0.1227,0.1217,0.122,0.1233,0.1236,0.1239,0.1242,0,0,-0.0082,0.0035,0.0033,0.0066,0.0187,0.0219,0.0273,0.0361,0.0404,0.0502,0.056,0.0702,0.0768,0.086,0.0964,0.104,0.1021,0.1103,0.1112,0.1079,0.1124,0.1057,0.1055,0.1106,0.1108,0.1109,0.108,0,-0.0168,-0.0158,-0.006,-0.0042,-0.0026,0.0111,0.0162,0.0261,0.0357,0.0437,0.0572,0.0671,0.0735,0.0794,0.0866,0.1015,0.1037,0.1016,0.1206,0.121,0.1155,0.1061,0.1096,0.107,0.1085,0.1086,0.1086,0,-0.026,-0.0228,-0.0232,-0.0122,-0.0105,-0.007,0.0051,0.0116,0.0262,0.0333,0.0444,0.0564,0.0684,0.075,0.0926,0.0906,0.0977,0.1073,0.1077,0.1106,0.1153,0.1163,0.1078,0.1193,0.1093,0.1093,0.1092,0,-0.0403,-0.0342,-0.0343,-0.0307,-0.0178,-0.0155,-0.008,0.0064,0.0131,0.0272,0.0329,0.0492,0.0581,0.0724,0.0877,0.0912,0.1046,0.1136,0.1123,0.1115,0.1233,0.1234,0.1294,0.1225,0.1225,0.1225,0.1225,0,-0.051,-0.0507,-0.0414,-0.041,-0.0393,-0.0269,-0.0222,-0.0122,0.0018,0.01,0.0256,0.0345,0.0585,0.0698,0.0833,0.0951,0.1001,0.1085,0.1117,0.115,0.1144,0.1327,0.1376,0.1224,0.1224,0.1224,0.1224,0,-0.064,-0.059,-0.0578,-0.0484,-0.0458,-0.0443,-0.0306,-0.0256,-0.0127,-0.0014,0.0029,0.023,0.0382,0.0563,0.079,0.088,0.1077,0.1042,0.0999,0.1026,0.1142,0.1178,0.1249,0.1316,0.1044,0.1043,0.1041,0,-0.0691,-0.0708,-0.0647,-0.0641,-0.06,-0.0552,-0.0502,-0.0352,-0.027,-0.0076,-0.0025,0.0129,0.0276,0.0508,0.0704,0.0876,0.0999,0.0974,0.1072,0.112,0.1187,0.1209,0.1265,0.1112,0.1112,0.1111,0.1111,0,-0.0769,-0.0758,-0.0743,-0.0734,-0.0709,-0.0642,-0.0554,-0.0494,-0.0299,-0.0164,0.0033,0.0156,0.0312,0.0545,0.0686,0.0805,0.1051,0.0964,0.1089,0.1284,0.1248,0.1338,0.1083,0.1106,0.1106,0.1107,0.1107,0.1107,-0.081,-0.0824,-0.0804,-0.0779,-0.0758,-0.0659,-0.0549,-0.0424,-0.0233,0.0085,0.0131,0.0426,0.052,0.076,0.0836,0.1007,0.1013,0.1144,0.1183,0.12,0.1274,0.0925,0.0946,0.0945,0.0945,0.0945,0.0944,0,-0.0802,-0.0811,-0.0824,-0.0751,-0.068,-0.0663,-0.0511,-0.0348,-0.0064,0.0199,0.0472,0.0827,0.0958,0.1034,0.116,0.1269,0.1335,0.1329,0.1442,0.1496,0.1274,0.129,0.1296,0.1296,0.1296,0.1296,0.1296,0.1296,-0.0797,-0.0791,-0.0783,-0.0649,-0.0586,-0.0409,-0.028,-0.0072,0.0152,0.0646,0.0996,0.1227,0.1289,0.1395,0.1522,0.1541,0.1694,0.1627,0.1702,0.1625,0.1614,0.1603,0.1633,0.1712,0.1712,0.1963,0.1966,0.1967]}],[{"header":{"parameterUnit":"m.s-1","parameterCategory":2,"la1":30.2991,"la2":30.254,"lo1":-89.0895,"lo2":-89.0444,"dy":0.0017,"dx":0.0017,"nx":28,"ny":28,"refTime":"2025-11-17T03:00:00:Z","depth":"2","parameterNumber":2,"parameterNumberName":"U-component_of_CURRENTS"},"data":[0,0,0,0,0,0,0,0,0,0,0,0,0,0,0,0,0,0,0,0,0,0,0,0,0,0,0,0,0,0,0,0,0,0,0,0,0,0,0,0,0,0,0,0,0,0,0,0,0,0,0,0,0,0,0,0,0,0,-0.2101,-0.2103,0,-0.2228,-0.2228,-0.2229,-0.2194,-0.2192,-0.2191,-0.2189,-0.2336,-0.2341,-0.2346,0,0,0,0,0,0,0,0,0,0,0,0,0,-0.1919,-0.1921,-0.2101,-0.2104,-0.2106,-0.2228,-0.2228,-0.2229,-0.2194,-0.2192,-0.219,-0.2189,-0.2334,-0.234,-0.2347,0,0,0,0,0,0,0,0,0,0,0,0,0,-0.2006,-0.1922,-0.21,-0.2112,-0.2115,-0.2228,-0.2228,-0.2229,-0.2195,-0.2192,-0.219,-0.2188,-0.2332,-0.234,-0.2348,-0.2442,0,0,-0.2372,-0.2375,0,0,0,0,0,0,0,0,-0.2001,-0.2011,-0.2108,-0.2112,-0.2115,-0.2203,-0.2219,-0.2305,-0.2195,-0.2152,-0.2189,-0.2187,-0.2303,-0.2313,-0.2325,-0.2449,-0.2455,-0.2373,-0.2377,-0.2381,-0.2383,0,0,0,0,0,0,0,-0.1995,-0.2006,-0.2139,-0.2111,-0.2116,-0.2143,-0.215,-0.2234,-0.223,-0.2156,-0.2156,-0.219,-0.2303,-0.2317,-0.2328,-0.2457,-0.2372,-0.2379,-0.2384,-0.2387,-0.2676,-0.2679,0,0,0,0,0,0,-0.2001,-0.2001,-0.2136,-0.2144,-0.2065,-0.2148,-0.2156,-0.2168,-0.2229,-0.2239,-0.2192,-0.2188,-0.2305,-0.2319,-0.2333,-0.2419,-0.2381,-0.2388,-0.2393,-0.2673,-0.2676,-0.268,0,0,0,0,0,0,-0.1996,-0.2011,-0.2131,-0.2086,-0.2104,-0.2154,-0.2167,-0.2172,-0.2204,-0.2258,-0.2265,-0.2223,-0.2303,-0.2322,-0.239,-0.2426,-0.2392,-0.2399,-0.267,-0.2674,-0.2678,-0.2611,0,0,0,0,0,0,-0.199,-0.2007,-0.2007,-0.2085,-0.2107,-0.2203,-0.2171,-0.2176,-0.2233,-0.2229,-0.2288,-0.2297,-0.2303,-0.2378,-0.2398,-0.2436,-0.2405,-0.2666,-0.2672,-0.2677,-0.2609,-0.2612,-0.2615,0,0,0,0,0,-0.1982,-0.2026,-0.2005,-0.2022,-0.2107,-0.2206,-0.2218,-0.2239,-0.2237,-0.2257,-0.2276,-0.2296,-0.2428,-0.2386,-0.2409,-0.245,-0.2663,-0.267,-0.2676,-0.2608,-0.2612,-0.2615,0,0,0,0,0,0,-0.1991,-0.203,-0.2008,-0.2068,-0.2124,-0.2204,-0.2254,-0.2265,-0.2299,-0.2301,-0.2324,-0.2335,-0.2408,-0.246,-0.2413,-0.2557,-0.2556,-0.2568,-0.2497,-0.2501,-0.2504,-0.2473,-0.2412,0,0,0,0,0,-0.1981,-0.1987,-0.2055,-0.2099,-0.2142,-0.2196,-0.2239,-0.2254,-0.2309,-0.2321,-0.2352,-0.2406,-0.2458,-0.2497,-0.2551,-0.264,-0.261,-0.2692,-0.2694,-0.2696,-0.2692,-0.2636,-0.2629,-0.2701,-0.2701,-0.2701,0,0,-0.1997,-0.2023,-0.2026,-0.2095,-0.2149,-0.2206,-0.2215,-0.2304,-0.2328,-0.234,-0.2386,-0.2419,-0.2484,-0.2546,-0.259,-0.2591,-0.2663,-0.2704,-0.2703,-0.27,-0.2641,-0.2633,-0.2626,-0.2705,-0.2705,-0.2704,0,0,-0.2045,-0.2066,-0.208,-0.2126,-0.2207,-0.2246,-0.2278,-0.2357,-0.2369,-0.243,-0.2428,-0.2462,-0.2579,-0.2584,-0.2617,-0.2689,-0.2672,-0.2748,-0.274,-0.2684,-0.2675,-0.2667,-0.2605,-0.2592,-0.2754,-0.2754,-0.2754,0,-0.2046,-0.2078,-0.2113,-0.2156,-0.2197,-0.2267,-0.2314,-0.2358,-0.2428,-0.2434,-0.2445,-0.2531,-0.2585,-0.262,-0.2641,-0.2687,-0.2653,-0.2704,-0.2677,-0.2668,-0.2661,-0.26,-0.2586,-0.2752,-0.2752,-0.2752,-0.2753,0,-0.2099,-0.2125,-0.2175,-0.2206,-0.2255,-0.2332,-0.2393,-0.2428,-0.2463,-0.2479,-0.2519,-0.2553,-0.2591,-0.2634,-0.2667,-0.2667,-0.2656,-0.2667,-0.264,-0.2647,-0.2586,-0.2572,-0.2748,-0.2749,-0.275,-0.2751,0,0,-0.2084,-0.2175,-0.2183,-0.2191,-0.2285,-0.2332,-0.2391,-0.2444,-0.2453,-0.2505,-0.2489,-0.2581,-0.2577,-0.2615,-0.2643,-0.2619,-0.2542,-0.2633,-0.2632,-0.2523,-0.2405,-0.2305,-0.228,-0.2532,-0.253,-0.2528,-0.2374,0,-0.2102,-0.2158,-0.2204,-0.226,-0.2302,-0.2361,-0.2401,-0.2443,-0.2474,-0.2476,-0.2503,-0.2521,-0.258,-0.2582,-0.2566,-0.256,-0.2507,-0.2582,-0.246,-0.2456,-0.2323,-0.2261,-0.2142,-0.1986,-0.2361,-0.2359,-0.2357,0,-0.2119,-0.2146,-0.2192,-0.2251,-0.2278,-0.2319,-0.2356,-0.2398,-0.2426,-0.2444,-0.2448,-0.2459,-0.2461,-0.2488,-0.2437,-0.2481,-0.2441,-0.2419,-0.2412,-0.233,-0.233,-0.2051,-0.1947,-0.2334,-0.2336,-0.2337,-0.2339,0,-0.2051,-0.2138,-0.2158,-0.2182,-0.2263,-0.2285,-0.2338,-0.238,-0.2379,-0.2403,-0.2379,-0.239,-0.2371,-0.234,-0.2326,-0.2373,-0.2223,-0.2274,-0.2127,-0.212,-0.2001,-0.1986,-0.2178,-0.2179,-0.2179,-0.2179,-0.218,0,-0.2037,-0.2052,-0.2132,-0.2135,-0.2152,-0.2238,-0.2243,-0.2295,-0.2313,-0.2294,-0.2348,-0.23,-0.2331,-0.2261,-0.226,-0.2137,-0.216,-0.2093,-0.2059,-0.1979,-0.1964,-0.2272,-0.2285,-0.2174,-0.2175,-0.2176,-0.2177,0,-0.1948,-0.2011,-0.2017,-0.209,-0.2115,-0.2119,-0.2176,-0.2172,-0.2226,-0.2185,-0.2183,-0.2198,-0.2142,-0.212,-0.2051,-0.2022,-0.1936,-0.1874,-0.1775,-0.1733,-0.189,-0.1903,-0.1702,-0.1697,-0.1693,-0.1689,-0.1686,0,-0.1901,-0.1899,-0.1939,-0.1939,-0.1975,-0.2003,-0.2023,-0.2106,-0.2098,-0.2113,-0.2074,-0.2019,-0.1954,-0.1806,-0.1753,-0.1654,-0.1765,-0.1477,-0.1549,-0.1846,-0.1834,-0.1854,-0.1872,-0.1367,-0.1361,-0.1357,-0.1354,0,-0.1787,-0.1802,-0.1808,-0.1796,-0.1816,-0.1819,-0.1865,-0.184,-0.1929,-0.1907,-0.1867,-0.1811,-0.1696,-0.1539,-0.1413,-0.1365,-0.1498,-0.1381,-0.1668,-0.1516,-0.1519,-0.1513,-0.1543,-0.1314,-0.1318,-0.1321,-0.1323,-0.1325,-0.1685,-0.1651,-0.1657,-0.1638,-0.1653,-0.1635,-0.1591,-0.1644,-0.161,-0.1573,-0.1636,-0.1524,-0.1477,-0.1222,-0.1127,-0.1071,-0.1197,-0.1168,-0.1186,-0.1208,-0.1205,-0.1202,-0.0936,-0.0938,-0.0939,-0.0941,-0.0942,0,-0.154,-0.1524,-0.1503,-0.1465,-0.1415,-0.148,-0.1469,-0.1408,-0.1339,-0.1357,-0.1315,-0.1144,-0.1004,-0.0968,-0.0811,-0.0765,-0.0812,-0.0743,-0.0821,-0.0858,-0.0892,-0.088,-0.0521,-0.052,-0.0519,-0.0518,0,0,-0.1461,-0.1385,-0.137,-0.1236,-0.1216,-0.1112,-0.1076,-0.1029,-0.1007,-0.0934,-0.0891,-0.095,-0.0929,-0.0732,-0.0675,-0.0569,-0.0717,-0.0539,-0.0875,-0.1004,-0.1037,-0.1128,-0.1148,0,0,0,0,0]},{"header":{"parameterUnit":"m.s-1","parameterCategory":2,"la1":30.2991,"la2":30.254,"lo1":-89.0895,"lo2":-89.0444,"dy":0.0017,"dx":0.0017,"nx":28,"ny":28,"refTime":"2025-11-17T03:00:00:Z","depth":"2","parameterNumber":3,"parameterNumberName":"V-component_of_CURRENTS"},"data":[0,0,0,0,0,0,0,0,0,0,0,0,0,0,0,0,0,0,0,0,0,0,0,0,0,0,0,0,0,0,0,0,0,0,0,0,0,0,0,0,0,0,0,0,0,0,0,0,0,0,0,0,0,0,0,0,0,0,-0.0632,-0.0631,0,-0.0564,-0.0564,-0.0563,-0.0531,-0.053,-0.053,-0.053,-0.0466,-0.0465,-0.0464,0,0,0,0,0,0,0,0,0,0,0,0,0,-0.0691,-0.069,-0.0632,-0.0631,-0.063,-0.0564,-0.0564,-0.0563,-0.0531,-0.053,-0.053,-0.053,-0.0467,-0.0465,-0.0463,0,0,0,0,0,0,0,0,0,0,0,0,0,-0.0651,-0.069,-0.0632,-0.0604,-0.06,-0.0564,-0.0564,-0.0563,-0.0531,-0.053,-0.053,-0.053,-0.0467,-0.0465,-0.0463,-0.0456,0,0,-0.0456,-0.0455,0,0,0,0,0,0,0,0,-0.0654,-0.065,-0.0609,-0.0606,-0.0602,-0.0553,-0.0561,-0.0526,-0.0531,-0.056,-0.053,-0.053,-0.0494,-0.049,-0.0482,-0.0453,-0.0451,-0.0456,-0.0455,-0.0454,-0.0453,0,0,0,0,0,0,0,-0.0656,-0.0652,-0.0608,-0.0608,-0.0603,-0.0579,-0.0574,-0.0554,-0.0532,-0.0558,-0.0554,-0.0542,-0.0493,-0.0484,-0.048,-0.045,-0.0456,-0.0454,-0.0453,-0.0452,-0.033,-0.0328,0,0,0,0,0,0,-0.0662,-0.0655,-0.061,-0.0606,-0.0624,-0.0579,-0.0573,-0.0571,-0.0532,-0.0525,-0.0543,-0.0541,-0.0488,-0.0483,-0.0478,-0.0406,-0.0454,-0.0452,-0.0451,-0.0332,-0.033,-0.0328,0,0,0,0,0,0,-0.0664,-0.0659,-0.0613,-0.0626,-0.0618,-0.0578,-0.0577,-0.057,-0.0548,-0.052,-0.0514,-0.0526,-0.0487,-0.0481,-0.0462,-0.0406,-0.0451,-0.0449,-0.0334,-0.0331,-0.0329,-0.0303,0,0,0,0,0,0,-0.0666,-0.066,-0.0666,-0.0627,-0.0617,-0.0588,-0.0576,-0.0569,-0.0541,-0.0538,-0.0504,-0.0498,-0.0487,-0.0465,-0.046,-0.0404,-0.0447,-0.0337,-0.0333,-0.033,-0.0306,-0.0299,-0.0294,0,0,0,0,0,-0.0668,-0.0671,-0.0667,-0.0661,-0.0625,-0.0588,-0.0581,-0.0553,-0.054,-0.0532,-0.0516,-0.0499,-0.0436,-0.0464,-0.0457,-0.0399,-0.0338,-0.0334,-0.033,-0.0309,-0.0301,-0.0294,0,0,0,0,0,0,-0.0678,-0.0667,-0.0661,-0.0655,-0.0624,-0.0581,-0.0568,-0.0547,-0.0526,-0.0523,-0.05,-0.0493,-0.0451,-0.0433,-0.0463,-0.035,-0.0374,-0.0368,-0.0359,-0.0352,-0.0346,-0.0358,-0.0445,0,0,0,0,0,-0.0689,-0.0703,-0.0667,-0.0661,-0.0645,-0.0606,-0.0588,-0.0567,-0.0539,-0.0528,-0.0502,-0.0466,-0.0428,-0.0401,-0.0378,-0.0329,-0.0313,-0.0277,-0.0271,-0.0266,-0.027,-0.0241,-0.0233,-0.0314,-0.0314,-0.0314,0,0,-0.069,-0.0684,-0.069,-0.0666,-0.0639,-0.062,-0.0594,-0.0562,-0.0543,-0.0525,-0.0493,-0.0458,-0.0416,-0.0363,-0.0336,-0.0338,-0.0222,-0.026,-0.0257,-0.0263,-0.0236,-0.0228,-0.0221,-0.0311,-0.0311,-0.0312,0,0,-0.0694,-0.0691,-0.0702,-0.0683,-0.0649,-0.0624,-0.0612,-0.0565,-0.054,-0.0511,-0.048,-0.0413,-0.0373,-0.0312,-0.028,-0.0223,-0.0205,-0.0201,-0.0164,-0.0136,-0.013,-0.0124,-0.0049,-0.0038,-0.0181,-0.0181,-0.0181,0,-0.0696,-0.0703,-0.0692,-0.0688,-0.0672,-0.0625,-0.0613,-0.0581,-0.0534,-0.0503,-0.0501,-0.0383,-0.0342,-0.0246,-0.0218,-0.0205,-0.019,-0.02,-0.013,-0.0125,-0.012,-0.0045,-0.0033,-0.0179,-0.0179,-0.018,-0.018,0,-0.0711,-0.0708,-0.0702,-0.0697,-0.0678,-0.0656,-0.0613,-0.0581,-0.0544,-0.0499,-0.0409,-0.0344,-0.0266,-0.0218,-0.0204,-0.0115,-0.0113,-0.0143,-0.0157,-0.0111,-0.0033,-0.0021,-0.0177,-0.0177,-0.0178,-0.0178,0,0,-0.0731,-0.072,-0.0717,-0.0713,-0.0682,-0.0663,-0.063,-0.0572,-0.0537,-0.046,-0.0398,-0.0281,-0.0223,-0.0182,-0.012,-0.0072,0.0008,-0.0092,-0.0091,-0.003,0.0093,0.006,0.0071,-0.0034,-0.0032,-0.0031,0.0149,0,-0.0739,-0.0745,-0.0735,-0.0721,-0.0712,-0.0671,-0.0641,-0.0585,-0.0533,-0.0466,-0.0345,-0.0272,-0.0214,-0.0165,-0.0101,-0.0041,0.0033,-0.0037,0.005,0.0054,0.0006,0.0081,0.0068,0.0221,0.0161,0.0163,0.0164,0,-0.076,-0.076,-0.0763,-0.0731,-0.0721,-0.0708,-0.0655,-0.062,-0.0518,-0.0467,-0.0357,-0.0289,-0.0149,-0.0145,0.0025,-0.0034,0.0037,0.0088,0.0095,0.0054,0.0041,0.0158,0.0246,0.0185,0.0183,0.0182,0.018,0,-0.0794,-0.0775,-0.0782,-0.0776,-0.0736,-0.0722,-0.0692,-0.0616,-0.0575,-0.0469,-0.0424,-0.027,-0.0182,-0.009,0.0037,0.0022,0.018,0.0176,0.0237,0.0238,0.0241,0.0238,0.0283,0.0282,0.0282,0.0282,0.0281,0,-0.0818,-0.0814,-0.0798,-0.0801,-0.0786,-0.0751,-0.0717,-0.0666,-0.0584,-0.052,-0.0419,-0.0335,-0.0181,-0.0072,0.0031,0.0177,0.0191,0.0262,0.0276,0.0256,0.0252,0.0211,0.02,0.0288,0.0287,0.0286,0.0284,0,-0.0847,-0.0844,-0.0842,-0.0814,-0.0806,-0.0797,-0.0744,-0.0712,-0.0635,-0.0556,-0.0522,-0.0367,-0.0215,-0.0071,0.0098,0.0182,0.0303,0.0346,0.0335,0.0342,0.0362,0.0351,0.0471,0.0471,0.0471,0.0471,0.0471,0,-0.0862,-0.0868,-0.0862,-0.0867,-0.0856,-0.0835,-0.0816,-0.0742,-0.0706,-0.0566,-0.0526,-0.0371,-0.0235,0.0007,0.0158,0.0346,0.0336,0.0425,0.0395,0.0377,0.0379,0.0367,0.0356,0.0455,0.0455,0.0455,0.0455,0,-0.0873,-0.0877,-0.088,-0.0896,-0.0895,-0.0882,-0.0848,-0.0828,-0.0727,-0.0655,-0.0524,-0.0415,-0.0161,0.0039,0.0241,0.0341,0.0387,0.0429,0.0423,0.0371,0.0365,0.0365,0.0355,0.0454,0.0454,0.0454,0.0454,0.0454,-0.0876,-0.0889,-0.0902,-0.0914,-0.0922,-0.0922,-0.0907,-0.0862,-0.0801,-0.0678,-0.0555,-0.0371,-0.0157,0.0138,0.0285,0.0414,0.0425,0.0465,0.0465,0.0465,0.0393,0.0382,0.0467,0.0467,0.0467,0.0467,0.0467,0,-0.0871,-0.0892,-0.0911,-0.0937,-0.0955,-0.0947,-0.0919,-0.0883,-0.082,-0.0687,-0.0553,-0.0301,-0.0083,0.0126,0.0339,0.0464,0.0468,0.0473,0.0466,0.0466,0.0465,0.0392,0.0468,0.0468,0.0468,0.0468,0,0,-0.0871,-0.0893,-0.0909,-0.0952,-0.0974,-0.0971,-0.0956,-0.0892,-0.0787,-0.0645,-0.0506,-0.0338,-0.0058,0.0085,0.0256,0.037,0.0379,0.0374,0.0363,0.0334,0.0332,0.0453,0.0338,0,0,0,0,0]}],[{"header":{"parameterUnit":"m.s-1","parameterCategory":2,"la1":30.2991,"la2":30.254,"lo1":-89.0895,"lo2":-89.0444,"dy":0.0017,"dx":0.0017,"nx":28,"ny":28,"refTime":"2025-11-17T03:00:00:Z","depth":"4","parameterNumber":2,"parameterNumberName":"U-component_of_CURRENTS"},"data":[0,0,0,0,0,0,0,0,0,0,0,0,0,0,0,0,0,0,0,0,0,0,0,0,0,0,0,0,0,0,0,0,0,0,0,0,0,0,0,0,0,0,0,0,0,0,0,0,0,0,0,0,0,0,0,0,0,0,-0.1216,-0.1217,0,-0.1267,-0.1268,-0.1268,-0.1291,-0.1291,-0.1291,-0.1291,-0.1327,-0.1328,-0.1329,0,0,0,0,0,0,0,0,0,0,0,0,0,-0.115,-0.1151,-0.1216,-0.1217,-0.1218,-0.1267,-0.1268,-0.1268,-0.1291,-0.1291,-0.1291,-0.1291,-0.1327,-0.1328,-0.1329,0,0,0,0,0,0,0,0,0,0,0,0,0,-0.1186,-0.1151,-0.1216,-0.1236,-0.1238,-0.1267,-0.1268,-0.1268,-0.1291,-0.1291,-0.1291,-0.1291,-0.1327,-0.1328,-0.1329,-0.1336,0,0,-0.1333,-0.1334,0,0,0,0,0,0,0,0,-0.1184,-0.1189,-0.1232,-0.1235,-0.1237,-0.1274,-0.1258,-0.1291,-0.1291,-0.1269,-0.1291,-0.1291,-0.1309,-0.1312,-0.1319,-0.1338,-0.134,-0.1334,-0.1334,-0.1335,-0.1335,0,0,0,0,0,0,0,-0.1182,-0.1187,-0.1235,-0.1233,-0.1236,-0.1246,-0.1251,-0.1264,-0.1287,-0.1271,-0.1273,-0.1281,-0.131,-0.1318,-0.132,-0.134,-0.1334,-0.1335,-0.1336,-0.1336,-0.1406,-0.1407,0,0,0,0,0,0,-0.1177,-0.1184,-0.1234,-0.1237,-0.1212,-0.1247,-0.1253,-0.1261,-0.1287,-0.1292,-0.1281,-0.1282,-0.1316,-0.1319,-0.1322,-0.1385,-0.1335,-0.1336,-0.1337,-0.1405,-0.1406,-0.1407,0,0,0,0,0,0,-0.1176,-0.1181,-0.1232,-0.1213,-0.122,-0.1248,-0.1257,-0.1262,-0.129,-0.1295,-0.1299,-0.1306,-0.1316,-0.132,-0.136,-0.1385,-0.1337,-0.1338,-0.1404,-0.1405,-0.1407,-0.1478,0,0,0,0,0,0,-0.1174,-0.118,-0.1194,-0.1212,-0.1221,-0.1253,-0.1258,-0.1263,-0.1293,-0.1296,-0.1317,-0.132,-0.1316,-0.1358,-0.1361,-0.1386,-0.1339,-0.1403,-0.1405,-0.1406,-0.1474,-0.1482,-0.1488,0,0,0,0,0,-0.1171,-0.1186,-0.1194,-0.1201,-0.1236,-0.1253,-0.1258,-0.1278,-0.1295,-0.1304,-0.1334,-0.132,-0.1371,-0.1361,-0.1364,-0.139,-0.1402,-0.1404,-0.1406,-0.1471,-0.148,-0.1488,0,0,0,0,0,0,-0.1174,-0.1191,-0.12,-0.1223,-0.1239,-0.1257,-0.1276,-0.1291,-0.1323,-0.1335,-0.1342,-0.1347,-0.1388,-0.1379,-0.1367,-0.1413,-0.138,-0.1384,-0.1429,-0.1437,-0.1444,-0.1405,-0.134,0,0,0,0,0,-0.1179,-0.1192,-0.1209,-0.1231,-0.1239,-0.1263,-0.1278,-0.1292,-0.1318,-0.1333,-0.1355,-0.1376,-0.1397,-0.1411,-0.1423,-0.1455,-0.1424,-0.147,-0.1476,-0.1482,-0.1452,-0.1447,-0.1451,-0.1415,-0.1415,-0.1415,0,0,-0.1188,-0.12,-0.1209,-0.1232,-0.1249,-0.1268,-0.1273,-0.13,-0.1326,-0.1331,-0.1386,-0.1404,-0.1411,-0.1448,-0.1464,-0.1447,-0.148,-0.1485,-0.1491,-0.1456,-0.145,-0.1453,-0.1456,-0.1416,-0.1416,-0.1416,0,0,-0.1203,-0.1222,-0.1233,-0.1248,-0.1274,-0.1287,-0.1299,-0.1331,-0.1354,-0.1405,-0.1416,-0.1442,-0.149,-0.1488,-0.1495,-0.1543,-0.1518,-0.1562,-0.1568,-0.1566,-0.1568,-0.157,-0.155,-0.1549,-0.1566,-0.1566,-0.1566,0,-0.1215,-0.123,-0.1241,-0.1257,-0.1275,-0.1298,-0.1318,-0.1345,-0.1392,-0.1405,-0.143,-0.1484,-0.1498,-0.1517,-0.1541,-0.1555,-0.155,-0.1542,-0.1574,-0.1575,-0.1575,-0.1554,-0.1553,-0.1569,-0.1569,-0.1569,-0.1568,0,-0.1226,-0.1251,-0.1262,-0.1288,-0.1308,-0.133,-0.136,-0.1392,-0.1433,-0.1451,-0.1494,-0.152,-0.1539,-0.1563,-0.1574,-0.1588,-0.1583,-0.1587,-0.1552,-0.1583,-0.1559,-0.1556,-0.1575,-0.1573,-0.1572,-0.1571,0,0,-0.1225,-0.1261,-0.1269,-0.1282,-0.1326,-0.1337,-0.1385,-0.1412,-0.1431,-0.1486,-0.1506,-0.1555,-0.1561,-0.1566,-0.1584,-0.1586,-0.1605,-0.1598,-0.1596,-0.1574,-0.1598,-0.1494,-0.148,-0.1633,-0.1633,-0.1632,-0.1586,0,-0.1233,-0.1259,-0.1283,-0.1319,-0.1331,-0.1367,-0.1403,-0.1433,-0.1467,-0.1494,-0.1514,-0.1543,-0.1566,-0.1586,-0.1595,-0.1602,-0.1597,-0.1615,-0.1571,-0.1568,-0.147,-0.1473,-0.1631,-0.1583,-0.1582,-0.1582,-0.1581,0,-0.1231,-0.1248,-0.128,-0.1318,-0.1328,-0.136,-0.1398,-0.1432,-0.1465,-0.1491,-0.1513,-0.1531,-0.1546,-0.1566,-0.1568,-0.159,-0.159,-0.1589,-0.1588,-0.1451,-0.1457,-0.1541,-0.1574,-0.1575,-0.1575,-0.1576,-0.1576,0,-0.12,-0.1245,-0.1268,-0.1284,-0.1333,-0.1361,-0.1392,-0.1431,-0.1453,-0.1482,-0.1496,-0.1514,-0.1533,-0.1537,-0.1548,-0.1569,-0.1537,-0.1562,-0.1456,-0.145,-0.1527,-0.1525,-0.154,-0.154,-0.154,-0.154,-0.154,0,-0.1183,-0.1206,-0.1258,-0.1271,-0.1294,-0.1342,-0.1372,-0.14,-0.1441,-0.1454,-0.1491,-0.1494,-0.1533,-0.1529,-0.1532,-0.1472,-0.1524,-0.1429,-0.1422,-0.1561,-0.1564,-0.1525,-0.1524,-0.1538,-0.1539,-0.1539,-0.1539,0,-0.1144,-0.1182,-0.1206,-0.1262,-0.1281,-0.1298,-0.1362,-0.1379,-0.1424,-0.1441,-0.1454,-0.1484,-0.1468,-0.1476,-0.147,-0.1435,-0.1396,-0.1362,-0.1489,-0.1495,-0.1314,-0.1317,-0.1225,-0.1221,-0.1217,-0.1214,-0.1212,0,-0.1119,-0.1132,-0.1188,-0.1204,-0.1237,-0.1275,-0.1304,-0.1361,-0.1379,-0.1424,-0.1422,-0.1424,-0.1432,-0.1313,-0.1347,-0.1299,-0.1296,-0.1263,-0.1294,-0.1274,-0.1278,-0.1287,-0.1295,-0.1206,-0.1205,-0.1204,-0.1203,0,-0.1074,-0.1109,-0.113,-0.1153,-0.1187,-0.1207,-0.1254,-0.1252,-0.1316,-0.138,-0.1335,-0.1301,-0.1268,-0.1237,-0.1197,-0.1179,-0.1277,-0.1226,-0.1234,-0.1262,-0.1251,-0.1259,-0.1271,-0.1191,-0.1193,-0.1194,-0.1194,0,-0.1044,-0.1039,-0.1071,-0.1076,-0.1118,-0.111,-0.1147,-0.1159,-0.1172,-0.1236,-0.1222,-0.1219,-0.1257,-0.1174,-0.1149,-0.1102,-0.1094,-0.1068,-0.1085,-0.1099,-0.1079,-0.1047,-0.0892,0,0,0,0,0,-0.0995,-0.0972,-0.0987,-0.097,-0.1014,-0.1022,-0.1096,-0.1141,-0.121,-0.1147,-0.1176,-0.1137,-0.1072,-0.1074,-0.0996,-0.1096,-0.1102,-0.1002,-0.1083,-0.1122,-0.1136,-0.1125,0,0,0,0,0,0,-0.0957,-0.0966,-0.0949,-0.0883,-0.0855,-0.0872,-0.0911,-0.0969,-0.0938,-0.1021,-0.0985,-0.1054,-0.1002,-0.1077,-0.096,-0.0963,-0.0989,-0.1018,-0.1014,-0.1113,-0.1127,-0.1138,-0.1132,0,0,0,0,0]},{"header":{"parameterUnit":"m.s-1","parameterCategory":2,"la1":30.2991,"la2":30.254,"lo1":-89.0895,"lo2":-89.0444,"dy":0.0017,"dx":0.0017,"nx":28,"ny":28,"refTime":"2025-11-17T03:00:00:Z","depth":"4","parameterNumber":3,"parameterNumberName":"V-component_of_CURRENTS"},"data":[0,0,0,0,0,0,0,0,0,0,0,0,0,0,0,0,0,0,0,0,0,0,0,0,0,0,0,0,0,0,0,0,0,0,0,0,0,0,0,0,0,0,0,0,0,0,0,0,0,0,0,0,0,0,0,0,0,0,-0.0534,-0.0534,0,-0.0547,-0.0547,-0.0547,-0.056,-0.056,-0.056,-0.056,-0.0596,-0.0597,-0.0598,0,0,0,0,0,0,0,0,0,0,0,0,0,-0.0512,-0.0513,-0.0534,-0.0534,-0.0534,-0.0547,-0.0547,-0.0547,-0.056,-0.056,-0.056,-0.056,-0.0596,-0.0597,-0.0598,0,0,0,0,0,0,0,0,0,0,0,0,0,-0.0524,-0.0513,-0.0534,-0.0541,-0.0542,-0.0547,-0.0547,-0.0547,-0.056,-0.056,-0.056,-0.056,-0.0595,-0.0597,-0.0598,-0.0603,0,0,-0.0602,-0.0603,0,0,0,0,0,0,0,0,-0.0523,-0.0525,-0.054,-0.0541,-0.0542,-0.0551,-0.0552,-0.0567,-0.056,-0.0554,-0.056,-0.056,-0.0582,-0.0585,-0.0588,-0.0605,-0.0607,-0.0602,-0.0603,-0.0603,-0.0604,0,0,0,0,0,0,0,-0.0522,-0.0524,-0.054,-0.054,-0.0541,-0.0541,-0.0543,-0.0555,-0.0569,-0.0555,-0.0555,-0.0555,-0.0583,-0.0587,-0.0589,-0.0607,-0.0602,-0.0603,-0.0604,-0.0605,-0.0645,-0.0646,0,0,0,0,0,0,-0.0519,-0.0524,-0.054,-0.054,-0.0532,-0.0541,-0.0543,-0.0549,-0.0568,-0.0571,-0.0555,-0.0556,-0.0584,-0.0587,-0.059,-0.0619,-0.0603,-0.0605,-0.0605,-0.0645,-0.0645,-0.0646,0,0,0,0,0,0,-0.0519,-0.0521,-0.0539,-0.0531,-0.0533,-0.0541,-0.0547,-0.0549,-0.0561,-0.0568,-0.0571,-0.0566,-0.0585,-0.0588,-0.061,-0.062,-0.0605,-0.0606,-0.0645,-0.0645,-0.0646,-0.0664,0,0,0,0,0,0,-0.0518,-0.0521,-0.0531,-0.0531,-0.0534,-0.055,-0.0547,-0.0549,-0.056,-0.0561,-0.0578,-0.0581,-0.0585,-0.0608,-0.0612,-0.0622,-0.0607,-0.0644,-0.0645,-0.0645,-0.0663,-0.0665,-0.0667,0,0,0,0,0,-0.0518,-0.0529,-0.0532,-0.0534,-0.0545,-0.0551,-0.0553,-0.0559,-0.056,-0.057,-0.0581,-0.0581,-0.0614,-0.061,-0.0614,-0.0624,-0.0644,-0.0645,-0.0645,-0.0662,-0.0665,-0.0667,0,0,0,0,0,0,-0.0522,-0.0532,-0.0534,-0.0548,-0.0552,-0.0553,-0.0562,-0.0564,-0.058,-0.0583,-0.059,-0.0594,-0.0616,-0.0617,-0.0612,-0.0636,-0.0627,-0.0629,-0.0639,-0.0641,-0.0643,-0.0627,-0.0609,0,0,0,0,0,-0.0528,-0.0544,-0.0545,-0.0558,-0.0559,-0.0562,-0.0567,-0.057,-0.0579,-0.0586,-0.0597,-0.0607,-0.062,-0.0628,-0.064,-0.0656,-0.0624,-0.0663,-0.0664,-0.0666,-0.0655,-0.0627,-0.0624,-0.0648,-0.0648,-0.0648,0,0,-0.0534,-0.0541,-0.0551,-0.0561,-0.0564,-0.0571,-0.0566,-0.0576,-0.0587,-0.0588,-0.0611,-0.0618,-0.0626,-0.0644,-0.0654,-0.0648,-0.0639,-0.0667,-0.0668,-0.0656,-0.0627,-0.0625,-0.0622,-0.0648,-0.0648,-0.0648,0,0,-0.0547,-0.0558,-0.0572,-0.0577,-0.0583,-0.0586,-0.059,-0.0595,-0.0603,-0.0621,-0.0625,-0.0634,-0.0657,-0.0659,-0.0664,-0.0681,-0.0653,-0.069,-0.0686,-0.066,-0.0657,-0.0655,-0.0594,-0.0586,-0.0689,-0.0689,-0.0689,0,-0.0553,-0.0569,-0.0576,-0.0585,-0.0591,-0.0593,-0.0602,-0.0611,-0.0625,-0.063,-0.0632,-0.0648,-0.066,-0.0669,-0.0676,-0.0685,-0.0653,-0.0679,-0.0661,-0.0658,-0.0655,-0.0593,-0.0584,-0.069,-0.069,-0.069,-0.069,0,-0.0572,-0.0584,-0.059,-0.0605,-0.0614,-0.0623,-0.063,-0.0641,-0.0649,-0.0653,-0.0664,-0.0668,-0.0671,-0.0681,-0.0686,-0.0677,-0.0654,-0.0668,-0.0653,-0.0653,-0.0588,-0.0578,-0.0691,-0.0691,-0.0691,-0.069,0,0,-0.0581,-0.0601,-0.0603,-0.0609,-0.0625,-0.0631,-0.065,-0.0661,-0.0667,-0.0675,-0.0673,-0.0691,-0.0681,-0.0684,-0.0686,-0.0665,-0.0617,-0.0658,-0.0656,-0.0592,-0.0528,-0.0482,-0.0467,-0.0632,-0.0631,-0.063,-0.0484,0,-0.0591,-0.061,-0.062,-0.0637,-0.0644,-0.0652,-0.0667,-0.068,-0.0687,-0.0686,-0.0679,-0.0682,-0.0687,-0.0683,-0.0664,-0.0636,-0.0595,-0.0653,-0.0541,-0.0536,-0.0493,-0.0456,-0.0626,-0.0476,-0.0474,-0.0472,-0.0471,0,-0.0604,-0.0614,-0.0635,-0.0646,-0.065,-0.0664,-0.0679,-0.0692,-0.0694,-0.0695,-0.0686,-0.0678,-0.0651,-0.0654,-0.0577,-0.0615,-0.0566,-0.0535,-0.0529,-0.0472,-0.0473,-0.0481,-0.0453,-0.0454,-0.0455,-0.0457,-0.0458,0,-0.0607,-0.0622,-0.0641,-0.0647,-0.0664,-0.0675,-0.0684,-0.0697,-0.0699,-0.0694,-0.0679,-0.0657,-0.0622,-0.0578,-0.0511,-0.0544,-0.0405,-0.0445,-0.0345,-0.034,-0.0418,-0.0422,-0.037,-0.037,-0.0371,-0.0371,-0.0371,0,-0.0612,-0.0624,-0.0644,-0.0654,-0.0671,-0.0679,-0.0693,-0.07,-0.0693,-0.0682,-0.0678,-0.0638,-0.0602,-0.0525,-0.0483,-0.0362,-0.0375,-0.0318,-0.0298,-0.0427,-0.0434,-0.0409,-0.0415,-0.0366,-0.0367,-0.0368,-0.0369,0,-0.0611,-0.0629,-0.0648,-0.0668,-0.0676,-0.0688,-0.0697,-0.0701,-0.069,-0.0666,-0.0657,-0.0603,-0.0502,-0.0437,-0.0338,-0.0303,-0.0215,-0.0167,-0.0264,-0.0256,-0.0173,-0.0183,-0.0047,-0.0044,-0.0042,-0.0039,-0.0038,0,-0.0611,-0.0623,-0.0658,-0.0676,-0.0688,-0.0703,-0.0714,-0.0709,-0.0702,-0.0635,-0.0613,-0.0507,-0.0464,-0.0267,-0.022,-0.0098,-0.0098,-0.0043,-0.015,-0.0145,-0.0139,-0.0152,-0.0165,-0.0034,-0.0033,-0.0033,-0.0032,0,-0.0605,-0.0627,-0.0647,-0.0684,-0.0706,-0.0719,-0.0723,-0.0707,-0.0681,-0.066,-0.0551,-0.0459,-0.0324,-0.0229,-0.0113,-0.0045,-0.0087,-0.0019,-0.0025,-0.0125,-0.0128,-0.0128,-0.0142,-0.0024,-0.0025,-0.0026,-0.0026,0,-0.0603,-0.0621,-0.0658,-0.0684,-0.0718,-0.0729,-0.0727,-0.0688,-0.0665,-0.0582,-0.0534,-0.041,-0.0336,-0.0194,-0.0098,-0.0013,-0.0023,-0.0034,-0.004,-0.0048,-0.0113,-0.0121,0.0028,0,0,0,0,0,-0.0595,-0.0619,-0.065,-0.0687,-0.0721,-0.0737,-0.0733,-0.0721,-0.0675,-0.0594,-0.0562,-0.0437,-0.0268,-0.0197,-0.0102,-0.0085,-0.0028,0.0026,-0.0049,0.0023,0.0013,-0.0061,0,0,0,0,0,0,-0.0594,-0.063,-0.0647,-0.0684,-0.0708,-0.0738,-0.0737,-0.0706,-0.0652,-0.0591,-0.0499,-0.0427,-0.027,-0.0323,-0.0105,-0.0077,-0.0115,0.011,0.0111,0.0028,0.0019,0.0012,-0.0068,0,0,0,0,0]}]]